Location: Corcelles
(46.1547°N, 4.7234°E)
Time: 04:46:25
(UTC+00:00)

Cosmos 1933 Rocket - Pass Details

Date: 14 July 2020
Orbit: 607 x 629 km, 82.5° (Epoch: 06 August)

Event Time Altitude Azimuth Distance (km) Brightness Sun altitude
Exits shadow 00:23:24 44° 125° (SE) 848 4.0 -21.7°
Maximum altitude 00:24:07 49° 93° (E) 792 4.1 -21.7°
Drops below altitude 10° 00:28:19 10° 19° (NNE) 1,971 7.3 -21.6°
Sets 00:30:35 0° 14° (NNE) 2,882 8.5 -21.5°
